Rome, NY

4:52 PM EST on November 16, 2019 (GMT -0500)
Griffiss

Weather History for KRME - September, 2019

Change the Weather History Date:

Tuesday, September 24, 2019

  Actual Average Record
Temperature  
Mean Temperature 62 °F -  
Max Temperature 66 °F 63 °F 88 °F (2010)
Min Temperature 54 °F 44 °F 29 °F (1992)
Degree Days  
Heating Degree Days 4    
Growing Degree Days 12 (Base 50)    
Moisture  
Dew Point 58 °F    
Average Humidity 90    
Maximum Humidity 100    
Minimum Humidity 57    
Precipitation  
Precipitation 0.15 in - - ()
Sea Level Pressure  
Sea Level Pressure 29.80 in    
Wind  
Wind Speed 7 mph (West)    
Max Wind Speed 17 mph    
Max Gust Speed 26 mph    
Visibility 9 miles    
Events Rain    
Averages and records for this station are not official NWS values.
T = Trace of Precipitation, MM = Missing Value Source: NWS Daily Summary

Daily Weather History Graph

Daily Weather History Graph

Search for Another Location

Airport or City:

Astronomy

Sep. 24, 2019 Rise Set
Actual Time 6:50 AM EDT 6:55 PM EDT
Civil Twilight 6:22 AM EDT 7:24 PM EDT
Nautical Twilight 5:49 AM EDT 7:57 PM EDT
Astronomical Twilight 5:15 AM EDT 8:31 PM EDT
Moon 1:23 AM EDT (9/24) 4:48 PM EDT (9/24)
Length of Visible Light 13h 01m
Length of Day
12h 04m
Waning Crescent, 23% of the Moon is Illuminated
Sep 24
Waning Crescent
Sep 28
New
Oct 5
First Quarter
Oct 13
Full
Oct 21
Last Quarter

Hourly Weather History & Observations

Time (EDT) Temp. Dew Point Humidity Pressure Visibility Wind Dir Wind Speed Gust Speed Precip Events Conditions
12:01 AM 64.0 °F 63.0 °F 96% 29.78 in 10.0 mi West 6.9 mph - N/A   Mostly Cloudy
12:16 AM 63.0 °F 62.1 °F 97% 29.78 in 10.0 mi WSW 9.2 mph - N/A   Overcast
12:39 AM 62.1 °F 62.1 °F 100% 29.78 in 10.0 mi WSW 9.2 mph - N/A   Overcast
12:53 AM 62.1 °F 61.0 °F 96% 29.77 in 10.0 mi WSW 8.1 mph - N/A   Mostly Cloudy
1:29 AM 62.1 °F 61.0 °F 96% 29.78 in 10.0 mi WSW 6.9 mph - N/A   Mostly Cloudy
1:45 AM 61.0 °F 60.1 °F 97% 29.78 in 10.0 mi West 6.9 mph - N/A   Mostly Cloudy
1:53 AM 61.0 °F 60.1 °F 97% 29.76 in 10.0 mi West 4.6 mph - N/A   Mostly Cloudy
2:17 AM 61.0 °F 60.1 °F 97% 29.77 in 1.8 mi West 6.9 mph - 0.12 in Rain Heavy Rain
2:21 AM 61.0 °F 60.1 °F 97% 29.77 in 2.0 mi West 10.4 mph - 0.12 in Rain Light Rain
2:25 AM 61.0 °F 60.1 °F 97% 29.77 in 4.0 mi West 8.1 mph - 0.13 in Rain Light Rain
2:43 AM 61.0 °F 60.1 °F 97% 29.76 in 10.0 mi West 5.8 mph - 0.13 in   Overcast
2:53 AM 60.1 °F 60.1 °F 100% 29.75 in 10.0 mi West 4.6 mph - 0.13 in   Overcast
3:11 AM 60.1 °F 60.1 °F 100% 29.76 in 10.0 mi Calm Calm - N/A   Mostly Cloudy
3:26 AM 60.1 °F 60.1 °F 100% 29.76 in 10.0 mi West 4.6 mph - N/A   Overcast
3:53 AM 60.1 °F 59.0 °F 96% 29.75 in 10.0 mi West 4.6 mph - N/A   Mostly Cloudy
4:08 AM 59.0 °F 59.0 °F 100% 29.76 in 10.0 mi West 4.6 mph - N/A   Mostly Cloudy
4:53 AM 59.0 °F 59.0 °F 100% 29.75 in 10.0 mi West 3.5 mph - N/A   Overcast
5:02 AM 59.0 °F 59.0 °F 100% 29.76 in 10.0 mi West 4.6 mph - N/A   Overcast
5:11 AM 60.1 °F 59.0 °F 96% 29.77 in 9.0 mi West 6.9 mph - 0.00 in Rain Light Rain
5:18 AM 60.1 °F 59.0 °F 96% 29.77 in 10.0 mi West 4.6 mph - 0.00 in Rain Light Rain
5:53 AM 60.1 °F 59.0 °F 96% 29.76 in 10.0 mi West 5.8 mph - 0.01 in   Overcast
6:53 AM 59.0 °F 59.0 °F 100% 29.77 in 10.0 mi WSW 8.1 mph - 0.00 in   Overcast
7:50 AM 59.0 °F 59.0 °F 100% 29.79 in 10.0 mi West 5.8 mph - 0.00 in Rain Light Rain
7:53 AM 59.0 °F 59.0 °F 100% 29.78 in 7.0 mi West 5.8 mph - 0.00 in Rain Light Rain
8:01 AM 59.0 °F 59.0 °F 100% 29.78 in 3.0 mi West 6.9 mph - 0.01 in Rain Light Rain
8:53 AM 61.0 °F 60.1 °F 97% 29.79 in 10.0 mi West 10.4 mph - 0.01 in   Overcast
9:18 AM 61.0 °F 60.1 °F 97% 29.81 in 10.0 mi West 9.2 mph - N/A   Overcast
9:53 AM 62.1 °F 60.1 °F 93% 29.81 in 10.0 mi West 9.2 mph - N/A   Overcast
10:08 AM 63.0 °F 60.1 °F 90% 29.81 in 10.0 mi West 9.2 mph - N/A   Overcast
10:28 AM 64.0 °F 61.0 °F 90% 29.81 in 10.0 mi West 10.4 mph - N/A   Mostly Cloudy
10:42 AM 64.0 °F 60.1 °F 87% 29.82 in 10.0 mi WNW 12.7 mph - N/A   Mostly Cloudy
10:53 AM 62.1 °F 57.9 °F 86% 29.81 in 10.0 mi NE 8.1 mph - N/A   Mostly Cloudy
11:02 AM 63.0 °F 59.0 °F 87% 29.81 in 10.0 mi NNE 8.1 mph - N/A   Overcast
11:53 AM 64.0 °F 55.9 °F 75% 29.82 in 10.0 mi West 11.5 mph - N/A   Overcast
12:41 PM 63.0 °F 57.9 °F 84% 29.83 in 10.0 mi NNW 11.5 mph - 0.00 in Rain Light Rain
12:53 PM 63.0 °F 57.0 °F 81% 29.82 in 10.0 mi NW 12.7 mph 23.0 mph 0.00 in   Mostly Cloudy
1:53 PM 66.0 °F 52.0 °F 60% 29.83 in 10.0 mi West 17.3 mph 26.5 mph N/A   Mostly Cloudy
2:53 PM 66.9 °F 51.1 °F 57% 29.84 in 10.0 mi West 17.3 mph 24.2 mph N/A   Scattered Clouds
3:53 PM 64.0 °F 50.0 °F 60% 29.84 in 10.0 mi WNW 15.0 mph - N/A   Mostly Cloudy
4:53 PM 64.0 °F 51.1 °F 63% 29.85 in 10.0 mi West 15.0 mph 21.9 mph N/A   Overcast
5:53 PM 64.0 °F 52.0 °F 65% 29.86 in 10.0 mi West 13.8 mph - N/A   Overcast
6:53 PM 60.1 °F 53.1 °F 78% 29.88 in 10.0 mi WNW 5.8 mph - N/A   Mostly Cloudy
7:53 PM 60.1 °F 54.0 °F 80% 29.88 in 10.0 mi West 5.8 mph - N/A   Overcast
8:53 PM 59.0 °F 55.0 °F 87% 29.89 in 10.0 mi WNW 4.6 mph - N/A   Overcast
9:53 PM 57.9 °F 55.0 °F 90% 29.89 in 10.0 mi Calm Calm - N/A   Overcast
10:18 PM 59.0 °F 55.0 °F 87% 29.89 in 10.0 mi Calm Calm - N/A   Overcast
10:53 PM 57.0 °F 55.9 °F 96% 29.88 in 10.0 mi Calm Calm - N/A   Mostly Cloudy
11:53 PM 54.0 °F 54.0 °F 100% 29.87 in 10.0 mi ENE 3.5 mph - N/A   Partly Cloudy